Flag for Trinidad and Tobago Weather past 2 weeks in Chaguanas, Trinidad and Tobago

86 °F


Feels Like: 99 °F
Forecast: 77 / 86 °F
Wind: 8 mph from Southeast

Location: Piarco International Airport - Trinidad

Current Time: Nov 27, 2015 at 11:35:58 AM

Latest Report: Nov 27, 2015 at 11:00 AM

Visibility: 5 mi

Pressure: 29.89 "Hg

Humidity: 79%

Dew point: 79 °F

Location of ChaguanasLocation

Historic Weather in Chaguanas — Graph


Chaguanas temperature yesterday

Maximum temperature yesterday: 90 °F (at 12:00 PM)
Minimum temperature yesterday: 73 °F (at 3:00 AM)
Average temperature yesterday: 81 °F

Past Weeks' High & Low Weather Summary

High91 °F (Nov 13, 1:00 PM)100% (Nov 12, 11:00 PM)29.98 "Hg (Nov 12, 11:00 PM)
Low72 °F (Nov 21, 5:00 AM)55% (Nov 13, 3:00 PM)29.74 "Hg (Nov 20, 3:00 PM)
Average80 °F84%29.86 "Hg
* Reported Nov 12 10:00 AM — Nov 27 10:00 AM, Chaguanas, Weather by CustomWeather, © 2015

Note: Actual official high and low records may vary slightly from our data, if they occured in-between our weather recording intervals... More about our weather records


Chaguanas weather history for previous 24 hours

Time TempWeatherWind HumidityBarometerVisibility
10:00 AM
Fri, Nov 27
82 °FScattered clouds.No wind89%29.92 "HgN/A
9:00 AM79 °FSprinkles. Partly sunny.10 mph94%29.92 "Hg1 mi
8:00 AM77 °FWarm.13 mph100%29.89 "Hg1 mi
7:00 AM77 °FScattered showers. Partly sunny.3 mph94%29.86 "HgN/A
6:00 AM75 °FScattered showers. Passing clouds.5 mph100%29.89 "HgN/A
5:00 AM77 °FScattered showers. Partly cloudy.14 mph94%29.83 "Hg4 mi
4:00 AM77 °FPassing clouds.No wind94%29.83 "HgN/A
2:00 AM77 °FScattered showers. Passing clouds.No wind94%29.86 "HgN/A
1:00 AM79 °FScattered showers. Passing clouds.6 mph89%29.86 "HgN/A
12:00 AM79 °FPassing clouds.6 mph89%29.89 "HgN/A
11:00 PM
Thu, Nov 26
79 °FScattered showers. Passing clouds.6 mph89%29.89 "HgN/A
10:00 PM77 °FPassing clouds.10 mph94%29.89 "HgN/A
9:00 PM79 °FPassing clouds.10 mph89%29.89 "HgN/A
8:00 PM79 °FPassing clouds.10 mph89%29.86 "HgN/A
7:00 PM79 °FPassing clouds.9 mph89%29.86 "HgN/A
6:00 PM81 °FPassing clouds.10 mph84%29.83 "HgN/A
5:00 PM81 °FScattered clouds.12 mph79%29.83 "HgN/A
4:00 PM86 °FScattered clouds.14 mph70%29.83 "HgN/A
3:00 PM90 °FScattered clouds.18 mph63%29.83 "HgN/A
2:00 PM90 °FScattered clouds.18 mph63%29.86 "HgN/A
1:00 PM90 °FScattered showers. Scattered clouds.16 mph63%29.86 "HgN/A
12:00 PM90 °FScattered showers. Passing clouds.15 mph63%29.89 "HgN/A
11:00 AM88 °FScattered showers. Scattered clouds.14 mph66%29.92 "HgN/A
Weather by CustomWeather, © 2015

See weather overviewHow to use our weather pages